Flag for Kazakhstan Weather past 2 weeks in Astana, Kazakhstan

23 °F

Passing clouds.

Feels Like: 11 °F
Forecast: 25 / 42 °F
Wind: 13 mph from Southwest

Location: Astana

Current Time: Oct 14, 2015 at 9:21:46 AM

Latest Report: Oct 14, 2015 at 8:30 AM

Visibility: N/A

Pressure: 30.15 "Hg

Humidity: 86%

Dew point: 19 °F

Location of AstanaLocation

Historic Weather in Astana — Graph


Astana temperature yesterday

Maximum temperature yesterday: 39 °F (at 12:00 AM)
Minimum temperature yesterday: 19 °F (at 11:30 PM)
Average temperature yesterday: 32 °F

Past Weeks' High & Low Weather Summary

High75 °F (Oct 8, 4:30 PM)100% (Oct 11, 7:30 AM)30.54 "Hg (Oct 11, 7:30 AM)
Low18 °F (Oct 10, 6:00 AM)11% (Oct 8, 3:30 PM)29.18 "Hg (Oct 4, 4:30 AM)
Average44 °F54%29.99 "Hg
* Reported Sep 29 8:00 AM — Oct 14 8:00 AM, Astana, Weather by CustomWeather, © 2015

Note: Actual official high and low records may vary slightly from our data, if they occured in-between our weather recording intervals... More about our weather records


Astana weather history for previous 24 hours

Time TempWeatherWind HumidityBarometerVisibility
8:00 AM
Wed, Oct 14
21 °FPassing clouds.10 mph86%30.12 "HgN/A
7:30 AM21 °FPassing clouds.10 mph86%30.12 "HgN/A
7:00 AM23 °FPassing clouds.10 mph86%30.12 "HgN/A
6:30 AM23 °FPassing clouds.10 mph86%30.09 "HgN/A
6:00 AM23 °FPassing clouds.10 mph86%30.09 "HgN/A
5:30 AM25 °FPassing clouds.10 mph80%30.09 "HgN/A
5:00 AM25 °FPartly cloudy.13 mph80%30.07 "HgN/A
4:30 AM25 °FPartly cloudy.10 mph80%30.07 "HgN/A
4:00 AM27 °FSnow flurries. Mostly cloudy.13 mph74%30.07 "HgN/A
3:30 AM27 °FOvercast.13 mph69%30.04 "HgN/A
3:00 AM27 °FMostly cloudy.8 mph69%30.04 "HgN/A
2:30 AM23 °FMostly cloudy.8 mph80%30.04 "HgN/A
2:00 AM21 °FPartly cloudy.6 mph80%30.04 "HgN/A
1:30 AM19 °FPassing clouds.6 mph79%30.04 "HgN/A
1:00 AM19 °FPassing clouds.8 mph79%30.04 "HgN/A
12:30 AM18 °FClear.8 mph79%30.04 "Hg10 mi
12:00 AM19 °FPassing clouds.8 mph79%30.04 "HgN/A
11:30 PM
Tue, Oct 13
19 °FPassing clouds.8 mph79%30.04 "HgN/A
11:00 PM23 °FPassing clouds.8 mph74%30.04 "HgN/A
10:30 PM25 °FPassing clouds.8 mph69%30.04 "HgN/A
10:00 PM27 °FPassing clouds.10 mph69%30.04 "HgN/A
9:30 PM28 °FPartly cloudy.13 mph64%30.04 "HgN/A
9:00 PM28 °FPartly cloudy.13 mph59%30.04 "HgN/A
8:30 PM28 °FPartly cloudy.15 mph55%30.04 "HgN/A
8:00 PM28 °FSnow flurries. Partly cloudy.15 mph59%30.01 "HgN/A
7:30 PM30 °FPartly cloudy.15 mph55%30.01 "HgN/A
7:00 PM30 °FBroken clouds.15 mph59%30.01 "HgN/A
6:30 PM30 °FSnow flurries. Broken clouds.13 mph69%29.98 "Hg3 mi
6:00 PM30 °FSnow flurries. Broken clouds.13 mph69%29.98 "Hg3 mi
5:30 PM32 °FBroken clouds.17 mph51%29.95 "HgN/A
5:00 PM32 °FBroken clouds.17 mph51%29.95 "HgN/A
4:30 PM34 °FBroken clouds.15 mph44%29.95 "HgN/A
4:00 PM34 °FBroken clouds.17 mph48%29.92 "HgN/A
3:30 PM34 °FBroken clouds.20 mph44%29.92 "HgN/A
2:30 PM34 °FSnow flurries. Broken clouds.17 mph44%29.92 "Hg6 mi
2:00 PM34 °FSnow flurries. Broken clouds.20 mph56%29.92 "Hg5 mi
1:30 PM34 °FPartly sunny.22 mph51%29.92 "HgN/A
1:00 PM36 °FPartly sunny.24 mph52%29.89 "HgN/A
12:30 PM37 °FPartly sunny.26 mph41%29.89 "HgN/A
12:00 PM37 °FPartly sunny.20 mph45%29.89 "HgN/A
11:30 AM37 °FPartly sunny.24 mph52%29.89 "HgN/A
11:00 AM39 °FSunny.22 mph42%29.89 "Hg10 mi
10:30 AM39 °FSunny.17 mph48%29.92 "Hg10 mi
10:00 AM37 °FSunny.13 mph60%29.92 "Hg10 mi
9:30 AM36 °FSunny.8 mph60%29.92 "Hg10 mi
9:00 AM30 °FSunny.6 mph69%29.92 "Hg10 mi
Weather by CustomWeather, © 2015

See weather overviewHow to use our weather pages